Location: Boiro
(42.6475°N, 8.8834°W)
Time: 07:06:16
(UTC+02:00)

SPROUT - Visible Passes

Search period start: 10 August 2022 00:00
Search period end: 20 August 2022 00:00
Orbit: 588 x 598 km, 97.9° (Epoch: 09 August)

Date Brightness Start Highest point End Pass type
(mag) Time Alt. Az. Time Alt. Az. Time Alt. Az.
10 Aug ? 02:09:58 13° NE 02:09:58 13° NE 02:11:18 10° NE visible
10 Aug ? 03:46:35 26° NNW 03:46:35 26° NNW 03:48:33 10° NNW visible
11 Aug ? 02:19:15 15° NE 02:19:15 15° NE 02:20:54 10° NNE visible
11 Aug ? 03:55:52 22° NW 03:55:52 22° NW 03:57:35 10° NNW visible
12 Aug ? 02:28:31 17° NE 02:28:31 17° NE 02:30:21 10° NNE visible
12 Aug ? 04:05:08 19° NW 04:05:08 19° NW 04:06:33 10° NNW visible
13 Aug ? 02:37:47 20° NE 02:37:47 20° NE 02:39:42 10° NNE visible
13 Aug ? 04:14:24 16° NW 04:14:24 16° NW 04:15:28 10° NW visible
14 Aug ? 02:47:03 22° NNE 02:47:03 22° NNE 02:48:58 10° N visible
14 Aug ? 04:23:39 13° NW 04:23:39 13° NW 04:24:20 10° NW visible
15 Aug ? 02:56:18 23° NNE 02:56:18 23° NNE 02:58:12 10° N visible
15 Aug ? 04:32:55 11° NW 04:32:55 11° NW 04:33:05 10° NW visible
16 Aug ? 03:05:33 24° NNE 03:05:33 24° NNE 03:07:22 10° N visible
17 Aug ? 03:14:48 23° N 03:14:48 23° N 03:16:31 10° N visible
18 Aug ? 03:24:02 22° N 03:24:02 22° N 03:25:36 10° N visible
19 Aug ? 03:33:16 21° NNW 03:33:16 21° NNW 03:34:40 10° NNW visible
